{"data":{"norad_id":66352,"intl_designator":"2025-254E","name":"STARLINK-35850","alt_names":[],"object_type":"PAYLOAD","status":"ACTIVE","operator":null,"country":"US","launch_date":"2025-11-06","launch_site_code":"AFWTR","launch_vehicle":null,"mission":null,"orbit_class":"UNKNOWN","rcs_meters":null,"size_class":null,"mass_kg":null,"dimensions":null,"purposes":["comms"],"wikipedia_slug":null,"has_3d_model":false,"image_url":null,"decayed_at":null,"tle_current":{"epoch":"2026-05-24T17:47:27.246048Z","epoch_age_seconds":100905,"freshness":"FRESH","line1":"1 66352U 25254E   26144.74128757  .00001139  00000+0  50606-4 0  9992","line2":"2 66352  53.1585 238.9050 0001219  82.6809 277.4330 15.30190555 30625","mean_motion":15.30190555,"eccentricity":0.0001219,"inclination_deg":53.1585,"raan_deg":238.905,"arg_perigee_deg":82.6809,"mean_anomaly_deg":277.433,"bstar":5.0606e-5,"rev_number":3062,"period_min":94.105926565466,"perigee_km":474.40784357692,"apogee_km":476.0786976869,"semimajor_km":6853.3802706319,"source":"CELESTRAK","updated_at":"2026-05-25T13:38:21.174121Z"}}}